[[{"header":{"parameterUnit":"m.s-1","parameterCategory":1,"la1":30.2991,"la2":30.254,"lo1":-89.0895,"lo2":-89.0444,"dy":0.0017,"dx":0.0017,"nx":28,"ny":28,"refTime":"2026-02-01T09:00:00:Z","depth":0,"parameterNumber":2,"parameterNumberName":"U-component_of_WINDS"},"data":[0,0,0,0,0,0,0,0,0,0,0,0,0,0,0,0,0,0,0,0,0,0,0,0,0,0,0,0,0,0,0,0,0,0,0,0,0,0,0,0,0,0,0,0,0,0,0,0,0,0,0,0,0,0,0,0,0,0,2.7579,2.7579,0,2.7604,2.7605,2.7605,2.7573,2.7571,2.757,2.7569,2.7595,2.7597,2.7599,0,0,0,0,0,0,0,0,0,0,0,0,0,2.7503,2.7504,2.7579,2.7579,2.7579,2.7604,2.7605,2.7605,2.7573,2.7571,2.757,2.7569,2.7595,2.7597,2.7599,0,0,0,0,0,0,0,0,0,0,0,0,0,2.7533,2.7505,2.7579,2.7566,2.7565,2.7604,2.7605,2.7605,2.7573,2.7571,2.757,2.7568,2.7594,2.7596,2.7599,2.7651,0,0,2.7607,2.7609,0,0,0,0,0,0,0,0,2.7531,2.7536,2.7568,2.7567,2.7566,2.7583,2.7587,2.7621,2.7574,2.757,2.7569,2.7567,2.7593,2.7595,2.7604,2.7652,2.7654,2.7608,2.7609,2.761,2.7611,0,0,0,0,0,0,0,2.7529,2.7534,2.7589,2.7568,2.7567,2.756,2.7562,2.7594,2.7591,2.757,2.7568,2.7572,2.7592,2.7602,2.7604,2.7654,2.7608,2.761,2.7612,2.7613,2.7749,2.7751,0,0,0,0,0,0,2.7528,2.7533,2.7588,2.759,2.7544,2.7563,2.7565,2.758,2.7591,2.7591,2.7573,2.757,2.7598,2.7601,2.7605,2.7668,2.761,2.7613,2.7614,2.7747,2.7749,2.7751,0,0,0,0,0,0,2.7527,2.7534,2.7587,2.7561,2.7567,2.7566,2.7582,2.7581,2.7591,2.7593,2.7592,2.7583,2.7597,2.7601,2.7641,2.7669,2.7614,2.7617,2.7744,2.7747,2.775,2.7794,0,0,0,0,0,0,2.7525,2.7533,2.7553,2.7561,2.7568,2.7622,2.7584,2.7583,2.7596,2.7592,2.7602,2.7602,2.7596,2.7637,2.7643,2.7671,2.7619,2.7742,2.7746,2.7749,2.779,2.7798,2.7805,0,0,0,0,0,2.7522,2.7563,2.7554,2.7561,2.7593,2.7623,2.7627,2.7619,2.7598,2.7618,2.7619,2.7602,2.7665,2.7641,2.7648,2.7678,2.774,2.7745,2.7749,2.7787,2.7797,2.7805,0,0,0,0,0,0,2.7557,2.7564,2.7554,2.7599,2.7611,2.7618,2.7642,2.7629,2.7647,2.7643,2.7632,2.7635,2.7677,2.7681,2.7654,2.773,2.7699,2.7705,2.7725,2.7735,2.7742,2.774,2.7621,0,0,0,0,0,2.7571,2.7595,2.76,2.7639,2.7646,2.7643,2.7656,2.7649,2.7661,2.7666,2.767,2.7682,2.7705,2.772,2.7741,2.7791,2.7793,2.7815,2.7822,2.7828,2.7834,2.7862,2.7872,2.7766,2.7766,2.7766,0,0,2.7598,2.7605,2.762,2.7646,2.7655,2.7681,2.7648,2.7676,2.7695,2.767,2.7707,2.7711,2.7724,2.777,2.779,2.7775,2.7864,2.7834,2.7839,2.7841,2.7868,2.7878,2.7887,2.7769,2.7769,2.7768,0,0,2.7661,2.7668,2.7703,2.7712,2.7726,2.7724,2.7732,2.7742,2.7744,2.7781,2.7763,2.7786,2.7825,2.7836,2.7846,2.7916,2.7901,2.7923,2.7962,2.799,2.7999,2.8006,2.8032,2.8041,2.7928,2.7928,2.7929,0,2.7693,2.7731,2.7722,2.7752,2.7765,2.7744,2.7779,2.7789,2.7809,2.7818,2.7801,2.785,2.7857,2.7906,2.7923,2.7932,2.7942,2.7922,2.7998,2.8005,2.8012,2.8037,2.8047,2.7931,2.7931,2.7931,2.793,0,2.7771,2.7798,2.7824,2.7844,2.786,2.7892,2.7889,2.7906,2.7898,2.7898,2.7938,2.7946,2.7969,2.798,2.7972,2.8028,2.8018,2.8,2.7969,2.8025,2.8048,2.8058,2.7935,2.7934,2.7933,2.7933,0,0,2.7855,2.7872,2.7882,2.7891,2.7906,2.7927,2.7959,2.7982,2.7997,2.8012,2.804,2.8074,2.8058,2.807,2.8063,2.8087,2.8144,2.8066,2.8066,2.8081,2.8208,2.8222,2.8233,2.8134,2.8136,2.8137,2.8207,0,2.7919,2.7976,2.7969,2.8023,2.8049,2.803,2.8059,2.8071,2.8073,2.8095,2.8097,2.8122,2.8098,2.8106,2.8129,2.8132,2.8169,2.8127,2.816,2.8162,2.8158,2.8245,2.826,2.8325,2.8216,2.8217,2.8218,0,2.8001,2.802,2.8077,2.8089,2.81,2.8125,2.8147,2.8168,2.8182,2.8182,2.8197,2.8186,2.822,2.8188,2.8235,2.8206,2.822,2.8223,2.8226,2.8229,2.8194,2.8251,2.8345,2.8356,2.8232,2.8231,2.823,0,2.8059,2.8098,2.8138,2.8147,2.8162,2.818,2.8188,2.82,2.8215,2.8234,2.8244,2.8266,2.8278,2.8296,2.8293,2.827,2.8341,2.8309,2.8342,2.8343,2.8358,2.8357,2.8457,2.8366,2.8366,2.8366,2.8365,0,2.8132,2.8167,2.8164,2.8189,2.8229,2.8222,2.8262,2.8266,2.8278,2.8303,2.8288,2.8313,2.8306,2.833,2.8328,2.8368,2.8373,2.8374,2.8373,2.8376,2.8376,2.8385,2.8381,2.8368,2.8368,2.8367,2.8367,0,2.8203,2.8202,2.8244,2.8256,2.8259,2.8288,2.8298,2.8322,2.8323,2.8355,2.8363,2.8365,2.8393,2.8391,2.8422,2.842,2.847,2.8463,2.8466,2.8464,2.8499,2.8496,2.8608,2.8623,2.8521,2.8522,2.8523,0,2.825,2.8277,2.8291,2.8308,2.8316,2.8343,2.8358,2.8352,2.8369,2.8389,2.841,2.8437,2.8458,2.8504,2.8508,2.8533,2.8527,2.8565,2.8531,2.8533,2.8529,2.8528,2.8531,2.8571,2.8573,2.8574,2.8574,0,2.8333,2.8332,2.8354,2.8378,2.8397,2.8415,2.8432,2.8446,2.8442,2.8462,2.8491,2.8508,2.8541,2.8568,2.8592,2.8599,2.8587,2.8585,2.8594,2.8598,2.8598,2.86,2.8485,2.8582,2.8582,2.8581,2.8581,2.858,2.8394,2.8418,2.8433,2.8459,2.8471,2.8488,2.8511,2.8515,2.8539,2.8566,2.8561,2.8594,2.8609,2.864,2.865,2.8676,2.8662,2.8676,2.8679,2.8683,2.8687,2.8594,2.868,2.868,2.868,2.8679,2.8679,0,2.8477,2.8486,2.8511,2.8535,2.8557,2.8543,2.8561,2.858,2.8609,2.8624,2.8646,2.868,2.8707,2.8714,2.874,2.876,2.8755,2.8767,2.8766,2.8768,2.8697,2.8687,2.8771,2.8771,2.8771,2.8771,2.8771,2.8771,2.8523,2.8564,2.8565,2.8612,2.862,2.8653,2.8664,2.868,2.8692,2.8731,2.8754,2.8758,2.8771,2.8798,2.8822,2.8824,2.8834,2.8849,2.8848,2.8782,2.8773,2.8764,2.8755,2.8851,2.8851,2.8917,2.8918,2.8919]},{"header":{"parameterUnit":"m.s-1","parameterCategory":1,"la1":30.2991,"la2":30.254,"lo1":-89.0895,"lo2":-89.0444,"dy":0.0017,"dx":0.0017,"nx":28,"ny":28,"refTime":"2026-02-01T09:00:00:Z","depth":0,"parameterNumber":3,"parameterNumberName":"V-component_of_WINDS"},"data":[0,0,0,0,0,0,0,0,0,0,0,0,0,0,0,0,0,0,0,0,0,0,0,0,0,0,0,0,0,0,0,0,0,0,0,0,0,0,0,0,0,0,0,0,0,0,0,0,0,0,0,0,0,0,0,0,0,0,-3.4142,-3.4144,0,-3.4248,-3.4249,-3.425,-3.4274,-3.4273,-3.4272,-3.4272,-3.4378,-3.4381,-3.4384,0,0,0,0,0,0,0,0,0,0,0,0,0,-3.3961,-3.3964,-3.4142,-3.4144,-3.4145,-3.4248,-3.4249,-3.4251,-3.4274,-3.4273,-3.4272,-3.4271,-3.4376,-3.4381,-3.4385,0,0,0,0,0,0,0,0,0,0,0,0,0,-3.405,-3.3965,-3.4142,-3.4169,-3.4172,-3.4248,-3.4249,-3.4251,-3.4274,-3.4273,-3.4272,-3.4271,-3.4375,-3.438,-3.4385,-3.4441,0,0,-3.4402,-3.4404,0,0,0,0,0,0,0,0,-3.4045,-3.4057,-3.4164,-3.4167,-3.4171,-3.4247,-3.4224,-3.4315,-3.4274,-3.4235,-3.4271,-3.427,-3.4335,-3.4343,-3.4366,-3.4446,-3.445,-3.4402,-3.4405,-3.4408,-3.4409,0,0,0,0,0,0,0,-3.4039,-3.4052,-3.4184,-3.4165,-3.417,-3.4176,-3.4187,-3.4241,-3.429,-3.4239,-3.4241,-3.4253,-3.4337,-3.436,-3.4368,-3.4452,-3.4402,-3.4407,-3.441,-3.4412,-3.4585,-3.4587,0,0,0,0,0,0,-3.4028,-3.4047,-3.4181,-3.4187,-3.4104,-3.418,-3.4193,-3.4224,-3.429,-3.4299,-3.4254,-3.4254,-3.4352,-3.4362,-3.4372,-3.4443,-3.4407,-3.4412,-3.4415,-3.4584,-3.4586,-3.4587,0,0,0,0,0,0,-3.4024,-3.404,-3.4176,-3.4118,-3.4136,-3.4184,-3.4219,-3.4226,-3.425,-3.4301,-3.431,-3.4269,-3.4351,-3.4365,-3.4424,-3.4447,-3.4415,-3.442,-3.4582,-3.4584,-3.4586,-3.4584,0,0,0,0,0,0,-3.4019,-3.4038,-3.4059,-3.4118,-3.4139,-3.4227,-3.422,-3.4229,-3.4259,-3.426,-3.4318,-3.4326,-3.4352,-3.4416,-3.4429,-3.4454,-3.4424,-3.458,-3.4583,-3.4586,-3.4582,-3.4586,-3.4589,0,0,0,0,0,-3.4012,-3.4053,-3.406,-3.4076,-3.4166,-3.4228,-3.424,-3.4269,-3.4261,-3.4283,-3.4316,-3.4324,-3.4442,-3.4422,-3.4437,-3.4463,-3.4579,-3.4582,-3.4586,-3.4581,-3.4585,-3.4589,0,0,0,0,0,0,-3.3995,-3.4061,-3.407,-3.4132,-3.4174,-3.4232,-3.426,-3.4272,-3.4317,-3.4316,-3.4349,-3.4362,-3.442,-3.4448,-3.4424,-3.4522,-3.451,-3.4517,-3.4502,-3.4506,-3.4509,-3.4502,-3.4428,0,0,0,0,0,-3.3998,-3.4043,-3.4099,-3.4148,-3.4169,-3.4211,-3.4239,-3.4258,-3.4303,-3.4321,-3.4358,-3.4402,-3.4449,-3.4479,-3.4525,-3.4586,-3.46,-3.4612,-3.4615,-3.4618,-3.4623,-3.466,-3.4666,-3.4598,-3.4598,-3.4598,0,0,-3.4005,-3.4048,-3.4074,-3.4146,-3.4181,-3.4227,-3.4226,-3.4274,-3.4309,-3.4328,-3.4387,-3.4417,-3.4467,-3.4529,-3.4558,-3.4553,-3.4645,-3.4622,-3.4623,-3.4627,-3.4664,-3.467,-3.4676,-3.46,-3.46,-3.4599,0,0,-3.4043,-3.4079,-3.4125,-3.4161,-3.4215,-3.4243,-3.4254,-3.4311,-3.4331,-3.4392,-3.4408,-3.445,-3.4529,-3.4566,-3.4594,-3.4648,-3.4658,-3.4662,-3.4679,-3.4715,-3.472,-3.4725,-3.4746,-3.4753,-3.4667,-3.4667,-3.4667,0,-3.4045,-3.4115,-3.4146,-3.4195,-3.4227,-3.4248,-3.4296,-3.4329,-3.4394,-3.4416,-3.441,-3.4513,-3.4548,-3.462,-3.4633,-3.4655,-3.467,-3.4656,-3.4717,-3.4723,-3.4728,-3.4748,-3.4756,-3.4667,-3.4667,-3.4667,-3.4667,0,-3.4116,-3.4165,-3.4196,-3.4261,-3.4296,-3.4343,-3.4382,-3.4414,-3.4431,-3.4459,-3.4522,-3.4565,-3.4622,-3.464,-3.4655,-3.4714,-3.471,-3.471,-3.47,-3.4734,-3.4754,-3.4762,-3.4668,-3.4668,-3.4668,-3.4668,0,0,-3.4144,-3.4228,-3.4239,-3.427,-3.4332,-3.437,-3.4419,-3.4476,-3.4503,-3.4548,-3.4591,-3.466,-3.4661,-3.4694,-3.4714,-3.4745,-3.4788,-3.4742,-3.4744,-3.475,-3.4857,-3.4858,-3.4866,-3.4794,-3.4796,-3.4797,-3.4854,0,-3.419,-3.4279,-3.431,-3.4384,-3.443,-3.4452,-3.4496,-3.4539,-3.4568,-3.4611,-3.4643,-3.4692,-3.4689,-3.4709,-3.4741,-3.4776,-3.481,-3.4772,-3.4835,-3.4837,-3.4823,-3.4876,-3.4876,-3.4927,-3.4861,-3.4863,-3.4864,0,-3.4255,-3.4303,-3.4382,-3.4442,-3.4462,-3.45,-3.4556,-3.4597,-3.4647,-3.4666,-3.4704,-3.4723,-3.4776,-3.4762,-3.4836,-3.481,-3.4838,-3.4859,-3.4862,-3.4869,-3.4853,-3.4886,-3.4944,-3.4952,-3.4876,-3.4875,-3.4874,0,-3.427,-3.4354,-3.4413,-3.4439,-3.4508,-3.4535,-3.4565,-3.4614,-3.4647,-3.4696,-3.4717,-3.4771,-3.48,-3.4841,-3.4874,-3.4861,-3.4946,-3.4935,-3.4964,-3.4963,-3.4981,-3.498,-3.5045,-3.4997,-3.4997,-3.4997,-3.4997,0,-3.4318,-3.4366,-3.4421,-3.4457,-3.4512,-3.4547,-3.46,-3.4632,-3.4676,-3.4719,-3.4741,-3.4781,-3.4821,-3.4867,-3.4893,-3.4952,-3.4964,-3.4982,-3.4988,-3.498,-3.4978,-3.4999,-3.4997,-3.4999,-3.4999,-3.4998,-3.4998,0,-3.4344,-3.4382,-3.4448,-3.451,-3.4527,-3.4564,-3.4617,-3.4654,-3.4684,-3.4739,-3.4754,-3.4802,-3.4857,-3.4894,-3.4963,-3.4981,-3.5046,-3.5051,-3.5029,-3.5032,-3.506,-3.5058,-3.5142,-3.5156,-3.5098,-3.5098,-3.5099,0,-3.4372,-3.441,-3.4477,-3.4508,-3.4539,-3.4588,-3.4622,-3.4659,-3.4694,-3.4755,-3.4785,-3.4841,-3.4889,-3.4976,-3.5017,-3.5071,-3.5079,-3.5105,-3.5087,-3.5079,-3.5081,-3.5079,-3.5084,-3.5107,-3.5108,-3.5108,-3.5109,0,-3.442,-3.4438,-3.4487,-3.4543,-3.4584,-3.463,-3.4676,-3.47,-3.4745,-3.4783,-3.484,-3.4877,-3.495,-3.5007,-3.5065,-3.5097,-3.5111,-3.5114,-3.5124,-3.5117,-3.5104,-3.5113,-3.5038,-3.5112,-3.5112,-3.5111,-3.5111,-3.5111,-3.4449,-3.4485,-3.4538,-3.4592,-3.4631,-3.4674,-3.4713,-3.4749,-3.4798,-3.4861,-3.4879,-3.4939,-3.4991,-3.5071,-3.5104,-3.5152,-3.5149,-3.5163,-3.5167,-3.517,-3.5171,-3.5095,-3.5162,-3.5162,-3.5162,-3.5162,-3.5162,0,-3.4499,-3.4535,-3.4585,-3.465,-3.4693,-3.4704,-3.4756,-3.4791,-3.4844,-3.4891,-3.4938,-3.5006,-3.5061,-3.5108,-3.5165,-3.5195,-3.5203,-3.5209,-3.5208,-3.5215,-3.5169,-3.5155,-3.5202,-3.5202,-3.5202,-3.5202,-3.5202,-3.5202,-3.4531,-3.4592,-3.4617,-3.4698,-3.4734,-3.4794,-3.4823,-3.4863,-3.4902,-3.4976,-3.5023,-3.5053,-3.5101,-3.5162,-3.5215,-3.5227,-3.5248,-3.5253,-3.5266,-3.5222,-3.5218,-3.5214,-3.5201,-3.5256,-3.5256,-3.5309,-3.5309,-3.5309]}]]